Regional Weather Roundup
Issued by NWS

Home | Current Version | Previous Version | Text Only | Print | Product List | Glossary Off
Versions: 1 2 3 4 5 6 7 8 9 10 11 12 13 14 15 16 17 18 19 20 21 22 23 24 25 26 27 28 29 30 31 32 33 34 35 36 37 38 39 40 41 42 43 44 45 46 47 48 49 50

000
ASUS43 KLOT 250603
RWRIL

ILLINOIS REGIONAL WEATHER ROUNDUP
NATIONAL WEATHER SERVICE CHICAGO/ROMEOVILLE IL
100 AM CDT SUN JUN 25 2017

NOTE: "FAIR" INDICATES FEW OR NO CLOUDS BELOW 12,000 FEET WITH NO
SIGNIFICANT WEATHER AND/OR OBSTRUCTIONS TO VISIBILITY.

* THESE STATIONS ARE NOT UNDER NWS QUALITY CONTROL. THEY ALSO MAY NOT
  REPORT WEATHER SUCH AS PRECIPITATION OR FOG.

ILZ001-002-007-009-015-016-024-250700-
NORTHWEST ILLINOIS

CITY           SKY/WX    TMP DP  RH WIND       PRES   REMARKS
MOLINE         CLEAR     56  51  84 CALM      30.11S
6HR MIN TEMP:  56; 6HR MAX TEMP:  73; 6HR PCP:  0.09;

STERLING*      CLEAR     55  52  89 W5        30.10F
SAVANNA*       CLEAR     52  52  98 CALM      30.10S
$$

ILZ003-004-008-010-011-017-018-250700-
NORTH CENTRAL ILLINOIS

CITY           SKY/WX    TMP DP  RH WIND       PRES   REMARKS
ROCKFORD       CLEAR     54  51  90 W5        30.09S
6HR MIN TEMP:  54; 6HR MAX TEMP:  69; 6HR PCP:  0.01;

FREEPORT*      PTCLDY    52  50  93 W3        30.10F
ROCHELLE*      CLEAR     53  52  94 W5        30.09S
DE KALB*       PTCLDY    55  51  87 W6        30.09S
PERU*          MOCLDY    56  49  78 W5        30.10S
$$

ILZ005-006-012>014-019>023-250700-
NORTHEAST ILLINOIS

CITY           SKY/WX    TMP DP  RH WIND       PRES   REMARKS
CHICAGO-OHARE  MOCLDY    59  51  75 W7        30.05S
6HR MIN TEMP:  59; 6HR MAX TEMP:  71; 6HR PCP:  0.02;

CHICAGO-MIDWAY MOCLDY    63  49  60 W5        30.05F
6HR MIN TEMP:  62; 6HR MAX TEMP:  72; 6HR PCP: TRACE;

AURORA         PTCLDY    54  51  90 W5        30.08S
6HR MIN TEMP:  54; 6HR MAX TEMP:  71;

LANSING*       CLOUDY    59  47  66 SW6       30.06F
JOLIET*        CLOUDY    60  53  77 CALM      30.08S
WAUKEGAN       CLEAR     56  50  80 SW5       30.04R
6HR MIN TEMP:  53; 6HR MAX TEMP:  69; 6HR PCP: TRACE;

DUPAGE AIRPORT CLOUDY    57  53  86 W7        30.06S
6HR MIN TEMP:  56; 6HR MAX TEMP:  70; 6HR PCP: TRACE;

WHEELING       MOCLDY    59  50  72 W6        30.07R
6HR MIN TEMP:  59; 6HR MAX TEMP:  70;

MORRIS*        PTCLDY    56  51  81 SW5       30.07S
ROMEOVILLE*    CLOUDY    60  47  63 W6        30.07S
NORTHERLY ISL    N/A     64  45  49 SW7         N/A
$$

LMZ740>746-250700-
SOUTHERN LAKE MICHIGAN

STATION/POSITION SKY/WX   TEMP    WIND        PRES    VSBY  WAVE
                          AIR SEA DIR/SP/G                  HT/PER
                          (F)     (DEG/KT/KT) (MB)    (MI)  (FT/S)
SOUTHERN BUOY              61 62  290/ 14/ 16 1016.0          3/ 4
WILMETTE HARBOR            62 65  260/ 12/ 16   N/A           1/ 3
HARRISON CRIB              65     250/ 15/ 18   N/A
BURNHAM HARBOR             64                   N/A
CALUMET HARBOR             64     200/  4/  5 1017.2S
BURNS HARBOR               65     230/ 12/ 14 1018.3S
MICHIGAN CITY              64     300/  5/  5   N/A
MICHIGAN CITY 6N           65 67  280/  4/  6   N/A           2/ 4
ST. JOSEPH                 64 68  300/  8/ 12 1017.0F         3/ 4
$$

ILZ025>027-034>036-040-047-049-050-058-095>099-250700-
WEST-CENTRAL ILLINOIS

CITY           SKY/WX    TMP DP  RH WIND       PRES   REMARKS
QUINCY         CLEAR     58  51  78 SW7       30.13S
GALESBURG*     MOCLDY    55  48  79 CALM      30.13S
MACOMB*        CLEAR     56  50  81 W7        30.15R
JACKSONVILLE*  PTCLDY    61  46  57 SW7       30.13S
PITTSFIELD*    PTCLDY    63  50  63 SW6       30.15S
$$

ILZ028>032-037-038-041>044-048-051>054-059>061-250700-
CENTRAL ILLINOIS

CITY           SKY/WX    TMP DP  RH WIND       PRES   REMARKS
PONTIAC        CLOUDY    62  50  66 W7        30.10S
BLOOMINGTON    PTCLDY    59  45  59 SW12      30.11F
DECATUR        CLEAR     57  48  72 SW7       30.12F
PEORIA         PTCLDY    61  46  57 NW3       30.12R
6HR MIN TEMP:  60; 6HR MAX TEMP:  73;

LACON*         CLEAR     60  49  68 CALM      30.10S
LINCOLN*       PTCLDY    63  47  55 SW3       30.11S
SPRINGFIELD    PTCLDY    62  48  60 SW6       30.13S
6HR MIN TEMP:  61; 6HR MAX TEMP:  76;

TAYLORVILLE    CLEAR     55  49  83 SW3       30.14F
6HR MIN TEMP:  55; 6HR MAX TEMP:  73;

$$

ILZ033-039-045-046-055>057-062-063-250700-
EAST-CENTRAL ILLINOIS

CITY           SKY/WX    TMP DP  RH WIND       PRES   REMARKS
CHAMPAIGN      CLEAR     56  46  69 S9        30.12F
RANTOUL*       CLOUDY    60  48  64 SW6       30.11S
MATTOON        CLEAR     61  50  67 SW7       30.13F
PARIS*         CLEAR     54  51  90 SW3       30.14S
$$

ILZ079-100>102-250700-
SOUTHWEST ILLINOIS

CITY           SKY/WX    TMP DP  RH WIND       PRES   REMARKS
ALTON          CLEAR     57  52  81 CALM      30.16F
BELLEVILLE     CLEAR     57  51  79 CALM      30.18F
CAHOKIA*       CLEAR     57  49  74 CALM      30.17F
SPARTA*        CLEAR     59  49  68 CALM      30.20S
$$

ILZ064>066-069>071-074>076-080>082-084>086-088>090-092>094-250700-
SOUTH-CENTRAL ILLINOIS

CITY           SKY/WX    TMP DP  RH WIND       PRES   REMARKS
CARBONDALE     CLEAR     59  58  96 CALM      30.19S
6HR MIN TEMP:  58; 6HR MAX TEMP:  77;

CAIRO*         CLEAR     63  61  93 N3        30.18F
EFFINGHAM*     CLEAR     56  54  91 CALM      30.17F
MARION         CLEAR     61  59  94 CALM      30.19S
MT. VERNON     CLEAR     54  54 100 CALM      30.18F
CENTRALIA*     CLEAR     57  53  87 CALM      30.17F
SALEM*         CLEAR     60  53  78 CALM      30.17F
METROPOLIS*    CLEAR     62  59  92 CALM      30.19R
$$

ILZ067-068-072-073-078-083-087-091-250700-
SOUTHEAST ILLINOIS

CITY           SKY/WX    TMP DP  RH WIND       PRES   REMARKS
LAWRENCEVILLE  CLEAR     61  53  75 W5        30.15F
FLORA*         CLEAR     58  52  78 CALM      30.17F
FAIRFIELD*     CLEAR     57  55  91 CALM      30.16F
HARRISBURG*    CLEAR     60  58  93 CALM      30.18S
ROBINSON*      CLEAR     54  52  95 SW3       30.16F
CARMI*         CLEAR     60  57  91 W3        30.16F
$$

ABBREVIATIONS USED IN REMARKS
   TC - TEMPERATURE IN CELSIUS
  WCI - WIND CHILL INDEX
   HX - HEAT INDEX
  VSB - VISIBILITY
$$





USA.gov is the U.S. government's official web portal to all federal, state and local government web resources and services.